Location: Tuscaloosa
(33.2100°N, 87.5400°W)
Time: 09:58:21
(UTC-06:00)

Daily predictions for brighter satellites

Satellite Brightness Start Highest point End
(mag) Time Altitude Azimuth Time Altitude Azimuth Time Altitude Azimuth
Cosmos 2227 4.5 17:58:34 10° S 18:04:04 50° ESE 18:09:33 10° NNE
Cosmos 1048 Rocket 4.1 17:59:12 10° SSW 18:04:32 85° ESE 18:09:50 10° NNE
Cosmos 1633 2.5 18:01:04 10° S 18:04:36 86° E 18:08:11 10° N
Cosmos 1452 Rocket 3.5 18:02:06 10° NNW 18:07:22 84° ENE 18:12:37 10° SSE
SKYMED 2 4.2 18:05:32 10° N 18:09:49 61° WNW 18:14:05 10° SSW
Landsat 4 3.6 18:06:24 10° NNE 18:10:09 73° ESE 18:13:54 10° S
EO 1 Del DPAF 3.3 18:06:47 10° NNE 18:10:32 56° ESE 18:14:16 10° S
CZ-4 R/B 3.0 18:07:11 10° S 18:10:59 40° W 18:14:44 10° NNW
Meteor 1-25 Rocket 4.3 18:06:34 10° S 18:12:06 87° W 18:17:41 10° N
Cosmos 2034 Rocket 4.4 18:07:58 10° N 18:14:01 43° E 18:19:59 10° SSE
Meteor 1-18 Rocket 4.2 18:10:15 10° N 18:15:46 63° E 18:21:14 10° SSE
Cosmos 1975 Rocket 4.0 18:12:13 10° NNE 18:16:03 28° ENE 18:19:53 10° SE
Cosmos 1437 Rocket 2.9 18:12:32 10° S 18:16:29 54° E 18:20:30 10° NNE
FENGYUN 3A 3.8 18:14:52 10° S 18:20:15 82° WSW 18:25:42 10° NNW
GPS 2-05 Rocket1 2.5 18:17:37 10° WSW 18:20:51 89° SE 18:23:37 13° ENE
SeaSat 1 4.3 18:21:57 10° ENE 18:23:32 11° NE 18:25:07 10° NNE
Cosmos 1420 Rocket 4.1 18:18:40 10° NNW 18:23:59 85° WSW 18:29:17 10° SSE
Cosmos 1536 4.4 18:21:59 10° SE 18:24:28 16° E 18:26:58 10° NE
Centaur D-1A AC-32 3.9 18:20:26 10° WSW 18:24:35 51° SSE 18:37:51 12° E
SPOT 3 Rocket 3.5 18:19:36 10° SSE 18:24:46 70° ENE 18:29:58 10° N
Lacrosse 5 rocket 2.7 18:23:05 10° SSE 18:25:35 17° ESE 18:27:09 14° E
Meteor 1-11 Rocket 4.2 18:25:32 10° SSE 18:30:34 36° E 18:35:42 10° NNE
Cosmos 1378 Rocket 3.7 18:29:52 10° N 18:34:18 80° W 18:38:44 10° S
USA 215 3.6 18:28:41 10° NE 18:34:57 47° SE 18:41:10 10° SSW
Sakura Rocket 4.0 18:31:00 10° WSW 18:35:41 55° S 18:40:56 15° ESE
ERS-2 2.5 18:33:38 10° SE 18:37:07 42° ENE 18:40:37 10° N
Resurs 01 Rocket 3.5 18:38:44 12° NE 18:38:44 12° NE 18:39:54 10° NE
Gbstr 26 Del rocket 4.2 18:36:25 10° WSW 18:39:47 31° NW 18:43:13 10° NNE
FengYun 1-2 T 4.1 18:37:17 10° SSE 18:42:44 68° ENE 18:48:10 10° N
Cosmos 1782 Rocket 3.8 18:39:02 10° S 18:43:28 76° W 18:47:52 10° N
Envisat 3.6 18:44:38 10° SE 18:49:09 34° ENE 18:53:41 10° N
FREGAT/IRIS 2.4 18:48:04 10° SSE 18:51:01 78° ENE 18:53:59 10° N
SL-16 R/B 3.4 18:46:03 10° NW 18:51:25 45° WSW 18:56:46 10° S
H-2A R/B 3.2 18:49:03 10° S 18:52:56 66° W 18:56:49 10° NNW
HJ-1C 3.5 18:49:56 10° SSE 18:53:15 51° ENE 18:56:34 10° N
Cosmos 494 Rocket 3.9 18:49:38 10° SSW 18:54:51 90° ESE 19:00:04 10° NNE
CRYOSAT 2 4.3 18:50:18 10° N 18:55:09 67° E 18:59:57 10° S
Tiangong 2 4.0 18:55:23 10° WSW 18:56:54 13° SW 18:58:27 10° SSW
OAO 2 Rocket 3.2 18:57:20 10° W 19:02:18 75° N 19:04:29 33° E
CZ-4C R/B 3.7 18:56:29 10° N 19:02:49 30° NE 19:05:22 25° E
Tsikada Rocket 4.4 19:02:08 10° SSW 19:08:30 70° W 19:14:55 10° N
Cosmos 1110 Rocket 3.9 19:04:34 10° NNW 19:09:52 70° ENE 19:15:09 10° SSE
Cosmos 921 Rocket 4.3 19:05:43 10° NNW 19:09:57 43° W 19:14:08 10° S
Cosmos 1603 3.5 19:05:01 10° NNW 19:10:40 78° ENE 19:16:15 10° SSE
SJ-6B 2.6 19:07:46 10° SSE 19:11:32 80° ENE 19:15:23 10° N
Okean 2 Rocket 3.7 19:08:28 10° SSW 19:12:46 57° W 19:17:07 10° N
Meteor 1-4 Rocket 3.4 19:09:35 10° SSW 19:12:59 48° W 19:16:27 10° N
COSMOS 2455 3.2 19:07:53 10° SW 19:13:51 67° WNW 19:19:53 10° NNE
Cosmos 2263 Rocket 2.1 19:10:03 10° SSW 19:15:35 88° ESE 19:21:13 10° NNE
Thor Agena Rocket 3.5 19:12:06 10° NNE 19:17:10 82° WNW 19:22:12 10° SSW
BREEZE-M DEB (TANK) 3.9 19:16:00 10° WSW 19:18:50 48° NNW 19:26:14 10° NE
CZ-2D R/B 3.1 19:16:59 22° SSE 19:19:25 85° ENE 19:23:19 10° N
IUS-18 SRM-1 4.4 19:18:02 10° SW 19:20:06 17° S 19:21:07 16° SSE
Cosmos 2151 Rocket 3.5 19:18:07 10° S 19:22:36 89° ESE 19:27:05 10° N
Meteor 1-13 Rocket 4.3 19:24:26 10° NNW 19:29:56 72° W 19:35:25 10° S
OAO 1 4.5 19:26:05 10° WNW 19:31:37 83° SSW 19:32:42 59° ESE
Spot 2 Rocket 4.4 19:40:29 33° NNE 19:40:29 33° NNE 19:43:29 10° N
Cosmos 1331 Rocket 4.2 19:33:29 10° NNW 19:38:46 70° WSW 19:42:12 22° S
ATLAS CENTAUR R/B 2.9 19:36:52 10° NNW 19:39:07 28° N 19:39:07 28° N
Geosat 3.8 19:43:52 69° NNE 19:44:30 88° ESE 19:49:32 10° SSW
Cosmos 2279 Rocket 4.3 19:40:00 10° N 19:44:58 49° NE 19:44:58 49° NE
Meteor 2-4 Rocket 4.4 19:49:07 10° NNW 19:54:37 51° W 19:59:57 10° SSW
SeaSat 1 3.1 20:01:41 50° NNW 20:01:41 50° NNW 20:05:20 10° NNW
Lacrosse 5 rocket 3.5 20:01:14 10° WSW 20:02:54 21° W 20:02:54 21° W
H-2A R/B 4.1 20:06:52 10° SW 20:08:25 14° SSW 20:08:25 14° SSW
Resurs 01 Rocket 3.7 20:16:18 23° NW 20:16:18 23° NW 20:18:07 10° NNW
Cosmos 1943 3.8 20:08:25 10° NNW 20:13:55 53° WSW 20:14:04 53° WSW
USA 215 4.2 20:14:51 27° NNE 20:17:49 43° NW 20:23:53 10° WSW
BREEZE-M DEB (TANK) 4.5 20:06:47 10° SW 20:22:54 74° SSW 20:22:54 74° SSW
BREEZE-M DEB (TANK) 4.4 20:10:58 10° SW 20:26:32 76° WNW 20:26:32 76° WNW
CZ-4C R/B 3.5 20:44:22 10° NW 20:50:38 55° W 20:50:38 55° W
CZ-3C R/B 4.4 21:27:09 10° WSW 22:17:22 15° ESE 22:32:46 10° ESE
